When you browse on this site, cookies collect data to enhance your experience and personalize the content and advertising you see.
Visit our Privacy Policy to learn more. By continuing to use the site, you agree to this use of cookies and data.
  • In Austria
  • List of Countries
  • For 7 days
  • Water Temperature
  • Weather Map
  • News
  • Weather Widgets
  • user-avatar
    Login

    Hourly Weather Angern

    Today, 17 September, Tuesday

    Time Temperature Precipitation Wind Pressure Humidity
    00:00 +10°C° 0 mm 3 mps 759 mmHg 93%
    01:00 +9°C° 0 mm 3 mps 759 mmHg 93%
    02:00 +9°C° 0 mm 3 mps 759 mmHg 92%
    03:00 +8°C° 0 mm 4 mps 759 mmHg 91%
    04:00 +8°C° 0 mm 4 mps 758 mmHg 89%
    05:00 +8°C° 0 mm 4 mps 758 mmHg 88%
    06:00 +8°C° 0 mm 4 mps 758 mmHg 86%
    07:00 +9°C° 0 mm 5 mps 758 mmHg 85%
    08:00 +10°C° 0 mm 6 mps 758 mmHg 77%
    09:00 +13°C° 0 mm 6 mps 757 mmHg 69%
    10:00 +14°C° 0 mm 7 mps 757 mmHg 61%
    11:00 +13°C° 0.1 mm 8 mps 757 mmHg 63%
    12:00 +13°C° 0.1 mm 8 mps 757 mmHg 65%
    13:00 +13°C° 0.1 mm 8 mps 756 mmHg 66%
    14:00 +13°C° 0.1 mm 8 mps 756 mmHg 62%
    15:00 +13°C° 0.1 mm 9 mps 757 mmHg 58%
    16:00 +13°C° 0.1 mm 9 mps 757 mmHg 53%
    17:00 +11°C° 0 mm 8 mps 757 mmHg 58%
    18:00 +10°C° 0 mm 6 mps 757 mmHg 62%
    19:00 +9°C° 0 mm 5 mps 758 mmHg 66%
    20:00 +9°C° 0 mm 5 mps 758 mmHg 67%
    21:00 +8°C° 0 mm 5 mps 759 mmHg 68%
    22:00 +8°C° 0 mm 5 mps 759 mmHg 70%
    23:00 +8°C° 0 mm 5 mps 759 mmHg 72%

    Tomorrow, 18 September, Wednesday

    Time Temperature Precipitation Wind Pressure Humidity
    00:00 +8°C° 0 mm 5 mps 760 mmHg 74%
    01:00 +7°C° 0 mm 5 mps 760 mmHg 77%
    02:00 +7°C° 0 mm 5 mps 760 mmHg 80%
    03:00 +7°C° 0 mm 5 mps 761 mmHg 82%
    04:00 +6°C° 0 mm 4 mps 761 mmHg 85%
    05:00 +7°C° 0 mm 4 mps 761 mmHg 85%
    06:00 +7°C° 0 mm 5 mps 762 mmHg 86%
    07:00 +7°C° 0 mm 5 mps 762 mmHg 86%
    08:00 +9°C° 0 mm 5 mps 762 mmHg 77%
    09:00 +12°C° 0 mm 5 mps 763 mmHg 68%
    10:00 +13°C° 0 mm 6 mps 763 mmHg 58%
    11:00 +13°C° 0 mm 6 mps 763 mmHg 57%
    12:00 +13°C° 0 mm 6 mps 763 mmHg 57%
    13:00 +13°C° 0 mm 6 mps 763 mmHg 56%
    14:00 +13°C° 0 mm 6 mps 763 mmHg 57%
    15:00 +13°C° 0 mm 6 mps 763 mmHg 57%
    16:00 +13°C° 0 mm 6 mps 763 mmHg 58%
    17:00 +12°C° 0 mm 5 mps 763 mmHg 62%
    18:00 +11°C° 0 mm 4 mps 763 mmHg 65%
    19:00 +10°C° 0 mm 4 mps 763 mmHg 69%
    20:00 +8°C° 0 mm 4 mps 764 mmHg 72%
    21:00 +8°C° 0 mm 4 mps 764 mmHg 75%
    22:00 +8°C° 0 mm 4 mps 764 mmHg 79%
    23:00 +7°C° 0 mm 4 mps 764 mmHg 81%

    Day after tomorrow, 19 September, Thursday

    Time Temperature Precipitation Wind Pressure Humidity
    00:00 +6°C° 0 mm 4 mps 765 mmHg 83%
    01:00 +6°C° 0 mm 4 mps 765 mmHg 86%
    02:00 +6°C° 0 mm 4 mps 765 mmHg 86%
    03:00 +5°C° 0 mm 4 mps 765 mmHg 86%
    04:00 +5°C° 0 mm 3 mps 765 mmHg 86%
    05:00 +7°C° 0 mm 3 mps 765 mmHg 84%
    06:00 +6°C° 0 mm 4 mps 765 mmHg 82%
    07:00 +6°C° 0 mm 4 mps 766 mmHg 80%
    08:00 +8°C° 0 mm 4 mps 766 mmHg 73%
    09:00 +11°C° 0 mm 4 mps 766 mmHg 67%
    10:00 +13°C° 0 mm 4 mps 767 mmHg 60%
    11:00 +13°C° 0 mm 4 mps 767 mmHg 56%
    12:00 +14°C° 0 mm 4 mps 767 mmHg 53%
    13:00 +15°C° 0 mm 4 mps 767 mmHg 49%
    14:00 +15°C° 0 mm 4 mps 767 mmHg 50%
    15:00 +14°C° 0 mm 4 mps 767 mmHg 52%
    16:00 +14°C° 0 mm 4 mps 767 mmHg 53%
    17:00 +13°C° 0 mm 3 mps 767 mmHg 59%
    18:00 +11°C° 0 mm 3 mps 767 mmHg 66%
    19:00 +9°C° 0 mm 2 mps 767 mmHg 73%
    20:00 +9°C° 0 mm 2 mps 767 mmHg 74%
    21:00 +9°C° 0 mm 2 mps 768 mmHg 76%
    22:00 +9°C° 0 mm 2 mps 768 mmHg 77%
    23:00 +8°C° 0 mm 2 mps 768 mmHg 80%

    20 September, Friday

    Time Temperature Precipitation Wind Pressure Humidity
    00:00 +7°C° 0 mm 2 mps 768 mmHg 84%
    01:00 +7°C° 0 mm 2 mps 768 mmHg 87%
    02:00 +7°C° 0 mm 2 mps 768 mmHg 89%
    03:00 +7°C° 0 mm 2 mps 768 mmHg 91%
    04:00 +6°C° 0 mm 2 mps 768 mmHg 92%
    05:00 +6°C° 0 mm 2 mps 768 mmHg 92%
    06:00 +7°C° 0 mm 2 mps 768 mmHg 91%
    07:00 +7°C° 0 mm 2 mps 768 mmHg 91%
    08:00 +9°C° 0 mm 2 mps 768 mmHg 82%
    09:00 +12°C° 0 mm 2 mps 768 mmHg 73%
    10:00 +14°C° 0 mm 2 mps 769 mmHg 64%
    11:00 +15°C° 0 mm 1 mps 768 mmHg 59%
    12:00 +16°C° 0 mm 1 mps 768 mmHg 55%
    13:00 +18°C° 0 mm 1 mps 768 mmHg 50%
    14:00 +18°C° 0 mm 1 mps 768 mmHg 51%
    15:00 +18°C° 0 mm 1 mps 767 mmHg 53%
    16:00 +18°C° 0 mm 1 mps 767 mmHg 54%
    17:00 +15°C° 0 mm 1 mps 767 mmHg 60%
    18:00 +14°C° 0 mm 1 mps 767 mmHg 67%
    19:00 +12°C° 0 mm 1 mps 767 mmHg 74%
    20:00 +12°C° 0 mm 1 mps 767 mmHg 76%
    21:00 +11°C° 0 mm 1 mps 767 mmHg 78%
    22:00 +11°C° 0 mm 1 mps 767 mmHg 80%
    23:00 +11°C° 0 mm 1 mps 767 mmHg 81%

    21 September, Saturday

    Time Temperature Precipitation Wind Pressure Humidity
    00:00 +10°C° 0 mm 1 mps 767 mmHg 82%
    01:00 +10°C° 0 mm 1 mps 767 mmHg 83%
    02:00 +10°C° 0 mm 1 mps 767 mmHg 83%
    03:00 +9°C° 0 mm 1 mps 767 mmHg 83%
    04:00 +9°C° 0 mm 1 mps 766 mmHg 83%
    05:00 +9°C° 0 mm 1 mps 766 mmHg 82%
    06:00 +9°C° 0 mm 1 mps 766 mmHg 81%
    07:00 +9°C° 0 mm 1 mps 766 mmHg 79%
    08:00 +12°C° 0 mm 2 mps 766 mmHg 71%
    09:00 +14°C° 0 mm 2 mps 766 mmHg 62%
    10:00 +16°C° 0 mm 3 mps 766 mmHg 54%
    11:00 +17°C° 0 mm 3 mps 765 mmHg 50%
    12:00 +18°C° 0 mm 3 mps 765 mmHg 47%
    13:00 +19°C° 0 mm 4 mps 765 mmHg 43%
    14:00 +19°C° 0 mm 4 mps 764 mmHg 44%
    15:00 +20°C° 0 mm 4 mps 764 mmHg 45%
    16:00 +20°C° 0 mm 4 mps 763 mmHg 45%
    17:00 +18°C° 0 mm 4 mps 763 mmHg 51%
    18:00 +15°C° 0 mm 4 mps 763 mmHg 57%
    19:00 +13°C° 0 mm 3 mps 763 mmHg 63%
    20:00 +13°C° 0 mm 3 mps 763 mmHg 64%
    21:00 +12°C° 0 mm 3 mps 763 mmHg 65%
    22:00 +12°C° 0 mm 3 mps 763 mmHg 66%
    23:00 +11°C° 0 mm 3 mps 763 mmHg 67%

    22 September, Sunday

    Time Temperature Precipitation Wind Pressure Humidity
    00:00 +11°C° 0 mm 3 mps 763 mmHg 68%
    01:00 +10°C° 0 mm 3 mps 763 mmHg 69%
    02:00 +10°C° 0 mm 3 mps 763 mmHg 70%
    03:00 +9°C° 0 mm 3 mps 762 mmHg 70%
    04:00 +9°C° 0 mm 3 mps 762 mmHg 71%
    05:00 +9°C° 0 mm 3 mps 762 mmHg 69%
    06:00 +8°C° 0 mm 4 mps 762 mmHg 68%
    07:00 +10°C° 0 mm 4 mps 762 mmHg 66%
    08:00 +12°C° 0 mm 4 mps 762 mmHg 61%
    09:00 +14°C° 0 mm 4 mps 762 mmHg 55%
    10:00 +17°C° 0 mm 4 mps 761 mmHg 50%
    11:00 +19°C° 0 mm 4 mps 761 mmHg 48%
    12:00 +20°C° 0 mm 4 mps 761 mmHg 45%
    13:00 +21°C° 0 mm 4 mps 760 mmHg 43%
    14:00 +22°C° 0 mm 4 mps 760 mmHg 44%
    15:00 +22°C° 0 mm 4 mps 760 mmHg 45%
    16:00 +22°C° 0 mm 3 mps 759 mmHg 46%
    17:00 +20°C° 0 mm 3 mps 759 mmHg 51%
    18:00 +18°C° 0 mm 3 mps 759 mmHg 57%
    19:00 +17°C° 0 mm 3 mps 759 mmHg 62%
    20:00 +16°C° 0 mm 3 mps 759 mmHg 65%
    21:00 +14°C° 0 mm 3 mps 759 mmHg 67%
    22:00 +14°C° 0 mm 3 mps 759 mmHg 70%
    23:00 +14°C° 0 mm 3 mps 759 mmHg 70%
    Show more